Regional Weather Roundup
Issued by NWS

Home | Current Version | Previous Version | Text Only | Print | Product List | Glossary Off
Versions: 1 2 3 4 5 6 7 8 9 10 11 12 13 14 15 16 17 18 19 20 21 22 23 24 25 26 27 28

000
ASUS45 KBOI 111610
RWRID

IDAHO REGIONAL WEATHER ROUNDUP
NATIONAL WEATHER SERVICE BOISE ID
900 AM MST MON DEC 11 2017

NOTE: "FAIR" INDICATES FEW OR NO CLOUDS BELOW 12000 FEET
WITH NO SIGNIFICANT WEATHER AND/OR OBSTRUCTIONS TO VISIBILITY

IDZ012-014-111700-
SOUTHWEST IDAHO


CITY           SKY/WX    TMP DP  RH WIND       PRES   REMARKS
BOISE          CLOUDY    23  20  88 E3        30.69R FOG
CALDWELL       NOT AVBL
MOUNTAIN HOME  CLOUDY    22  22 100 SE5       30.68R FOG     WCI  15
$$

IDZ016-017-111700-
SOUTHCENTRAL IDAHO


CITY           SKY/WX    TMP DP  RH WIND       PRES   REMARKS
BURLEY         FOG       18  15  88 CALM      30.58S VSB 1/4
JEROME         CLEAR     22  14  71 E6        30.61S WCI  14
TWIN FALLS     FOG       22  18  85 NW3       30.60R VSB<1/4
$$

IDZ019>023-111700-
SOUTHEAST IDAHO


CITY           SKY/WX    TMP DP  RH WIND       PRES   REMARKS
IDAHO FALLS    CLOUDY    12   9  87 N5        30.60S WCI   4
POCATELLO      CLOUDY    11   7  84 CALM      30.61R
REXBURG        CLOUDY    12   7  80 NE5       30.60R WCI   4
$$

IDZ006-010-011-018-031-032-111700-
CENTRAL IDAHO MOUNTAINS


CITY           SKY/WX    TMP DP  RH WIND       PRES   REMARKS
MCCALL         FOG        7   5  91 CALM      30.55R VSB 1/4
HAILEY         PTCLDY    25  12  58 NW7       30.58R WCI  17
STANLEY          N/A     -1  -5  82 CALM      30.65R
SALMON         CLOUDY    15  13  91 N5        30.76R WCI   8
CHALLIS        CLEAR      8   3  80 CALM      30.67R
$$

IDZ002-004-006-007-026-111700-
NORTHERN IDAHO


CITY           SKY/WX    TMP DP  RH WIND       PRES   REMARKS
LEWISTON       CLOUDY    26  25  96 SE7       30.64R WCI  18
LOWELL           N/A     23  21  92 NW6       30.68R WCI  16
COEUR D`ALENE  CLOUDY    26  22  84 NE9       30.60R WCI  17
MULLAN PASS    CLEAR     40  -3  16 S3        30.49R
$$




USA.gov is the U.S. government's official web portal to all federal, state and local government web resources and services.